Other Public Products
Issued by NWS Grand Forks, ND

Home | Current Version | Previous Version | Graphics & Text | Print | Product List | Glossary On
Versions: 1 2 3 4 5 6 7 8 9 10 11 12 13 14 15 16 17 18 19 20 21 22 23 24 25 26 27 28 29 30 31 32 33 34 35 36 37 38 39 40 41 42 43 44 45 46 47 48 49 50
000
FPUS83 KFGF 050310
OPUFGF
PRAIRIE TO PINES WEATHER ROUNDUP
NATIONAL WEATHER SERVICE EASTERN NORTH DAKOTA/GRAND FORKS ND
900 PM CST SUN DEC 04 2016

 **SATELLITE DATA USED TO AUGMENT SKY COVER AT AUTOMATED STATIONS**
 *****  WEATHER ACROSS EASTERN NORTH DAKOTA  *****

CITY           SKY/WX    TMP DP  RH WIND       PRES   REMARKS
GRAND FORKS    CLOUDY    30  25  81 W8        29.66S WCI  22
GRAND FORKS AF CLOUDY    29  25  86 NW10      29.66S WCI  20
GRAND CITY NWS   N/A     28 N/A N/A W10         N/A  WCI  19
BUXTON         NOT AVBL
DEVILS LAKE    CLOUDY    24  23  96 W10       29.65S FOG     WCI  14
FARGO          CLOUDY    33  28  81 SW13      29.68S WCI  24
WAHPETON ARPT  CLEAR     32  28  86 W9        29.71F WCI  24
$$

 *****  WEATHER ACROSS CENTRAL AND WESTERN NORTH DAKOTA  *****

CITY           SKY/WX    TMP DP  RH WIND       PRES   REMARKS
JAMESTOWN      CLEAR     22  19  89 SW3       29.65F
BISMARCK       CLOUDY    16  14  92 E7        29.64F WCI   6
MINOT          CLOUDY    17  14  88 CALM      29.59F
MINOT AFB      CLOUDY    11   9  89 E5        29.60S WCI   3
GARRISON         N/A     17  15  92 CALM      29.60S
WILLISTON      CLOUDY    24  19  81 N3        29.54F
DICKINSON      CLOUDY    28  21  75 S12       29.53F WCI  18
HETTINGER      CLOUDY    31  22  69 VRB3      29.58F
$$

 *****  OTHER OBSERVATIONS NORTHEAST NORTH DAKOTA  *****

CITY           SKY/WX    TMP DP  RH WIND       PRES   REMARKS
WALHALLA         N/A     28  28 100 NW12G18   29.64R WCI  18
LANGDON        CLOUDY    27  27 100 W14       29.62S FOG     WCI  15
CAVALIER         N/A     30  27  86 W13       29.64R WCI  20
GRAFTON          N/A     30  28  93 W15       29.67R WCI  19
CANDO          FOG       23  23 100 W7        29.66F VSB 3/4 WCI  15
FORT TOTTEN      N/A     24  24 100 W5        29.95S WCI  18
ROLLA          FOG       19  19 100 NE6       29.62S VSB 1/4 WCI  11
RUGBY          FOG       23  23 100 CALM      29.63S VSB 1/4
 ***** THE ABOVE OBSERVATIONS ARE NON NWS ARE NOT QUALITY
        CONTROLLED AND MAY MIS-REPORT RAIN FOR SNOW...
$$

 *****  OTHER OBSERVATIONS SOUTHEAST NORTH DAKOTA *****

CITY           SKY/WX    TMP DP  RH WIND       PRES   REMARKS
COOPERSTOWN    CLOUDY    28  27  93 NW10      29.66S WCI  19
VALLEY CITY    FAIR      19  19 100 SW9       29.69S WCI   9
OAKES          NOT AVBL
GWINNER          N/A     30  28  93 SW9       29.69F WCI  22
SHEYENNE NWR     N/A     26  22  86 W7        29.95S WCI  18
BUFFALO        NOT AVBL
WYNDMERE       NOT AVBL
 ***** THE ABOVE OBSERVATIONS ARE NON NWS ARE NOT QUALITY
       CONTROLLED AND MAY MIS-REPORT RAIN FOR SNOW...
$$

  *****  WEATHER ACROSS NORTHERN MINNESOTA  *****

CITY           SKY/WX    TMP DP  RH WIND       PRES   REMARKS
FLAG ISLAND    LGT SNOW  30  28  93 SW12      29.57S WCI  21
WARROAD        FLURRIES  30  27  86 SW7       29.59S WCI  23
ROSEAU         CLOUDY    30  27  86 SW7       29.59S WCI  23
HALLOCK        CLOUDY    30  28  93 W12       29.62S WCI  21
THF RVR FALLS  FLURRIES  29  27  92 W13       29.64R WCI  19
HALSTAD          N/A     30  27  88 W6          N/A  WCI  24
FOSSTON        CLOUDY    27  27 100 W10       29.65R WCI  17
BAUDETTE       CLOUDY    30  27  88 W6        29.59S WCI  24
WASKISH        CLOUDY    30  28  93 SW12      29.61S WCI  21
CROOKSTON      CLOUDY    30  28  93 W13       29.67S WCI  20
$$
  *****  WEATHER ACROSS CENTRAL AND WEST MINNESOTA  *****

CITY           SKY/WX    TMP DP  RH WIND       PRES   REMARKS
BEMIDJI        CLOUDY    29  28  93 W10       29.62S WCI  20
PARK RAPIDS    CLOUDY    31  25  78 W14       29.65R WCI  21
WADENA         CLOUDY    30  28  93 W7        29.67S WCI  23
DETROIT LAKES  CLOUDY    32  28  86 W7        29.68S
MOORHEAD       CLOUDY    30  28  93 SW6       29.70S WCI  24
FERGUS FALLS   MOCLDY    32  32 100 W9        29.74S WCI  24
ELBOW LAKE     FAIR      30  29  99 CALM      29.71F
MORRIS MN      CLEAR     30  28  93 W6        29.72S WCI  24
STAPLES        CLOUDY    30  28  93 SW8       29.67S WCI  23
WHEATON        CLEAR    N/A N/A N/A SW5       29.73F
$$
  *****  WEATHER ELSEWHERE ACROSS MINNESOTA  *****

CITY           SKY/WX    TMP DP  RH WIND       PRES   REMARKS
DULUTH         FRZ DRZL  32  32 100 SW9       29.62S FOG     WCI  24
INTRNTL FALLS  LGT SNOW  30  29  96 SE3       29.59F FOG
ELY            FLURRIES  28  28 100 CALM      29.61F
CLOQUET        LGT SNOW  34  30  86 SW8       29.63F
BRAINERD       CLOUDY    32  29  88 SW9       29.67F WCI  24
HIBBING        CLOUDY    30  30 100 CALM      29.60F
ALEXANDRIA     CLOUDY    33  31  92 W9        29.71S
SAINT CLOUD    CLOUDY    33  31  92 SW6       29.72S
MINNEAPOLIS    CLOUDY    37  30  75 W7        29.76S
$$

  *****  WEATHER ACROSS SOUTH DAKOTA  *****

CITY           SKY/WX    TMP DP  RH WIND       PRES   REMARKS
SIOUX FALLS    PTCLDY    32  29  88 SW6       29.78F
BROOKINGS      CLEAR     29  27  92 SW5       29.75S WCI  24
WATERTOWN      CLEAR     26  25  96 SW9       29.73S WCI  17
HURON          CLEAR     28  26  92 S7        29.73F WCI  21
SISSETON         N/A     33  26  75 W13       29.70S WCI  24
ABERDEEN       CLEAR     23  21  92 S7        29.72F WCI  15
MITCHELL       CLOUDY    32  28  85 S7        29.76F
PIERRE         CLEAR     27  22  81 SE6       29.66F WCI  20
MOBRIDGE       CLOUDY    29  23  78 SE9       29.62F WCI  20
RAPID CITY     CLOUDY    35  18  49 S5        29.58F
$$

  *****  SOME WEATHER IN NEARBY STATES *****

CITY           SKY/WX    TMP DP  RH WIND       PRES   REMARKS
GLASGOW MT     CLOUDY    32  31  96 SW5       29.47F
GREAT FALLS MT FLURRIES  24  19  81 NW17      29.62R WCI  11
CHEYENNE WY    CLOUDY    40  15  36 S13       29.73S
SCOTTSBLUFF NE CLOUDY    29  16  58 E7        29.68F WCI  22
OMAHA NE       CLEAR     33  28  81 S9        29.91S
DES MOINES IA  PTCLDY    34  32  92 SW9       29.91F
DAVENPORT IA   CLOUDY    33  31  92 W15       29.93R WCI  23
CHICAGO IL     MOCLDY    27  26  96 SW6       29.88R FOG     WCI  20
EAU CLAIRE WI  CLOUDY    34  32  92 SW6       29.75R
LA CROSSE WI   CLOUDY    35  31  85 S9        29.81S
$$

  *****  SOME NATIONAL WEATHER *****

CITY           SKY/WX    TMP DP  RH WIND       PRES   REMARKS
LA GUARDIA NY  CLOUDY    42  24  49 E9        30.16F
RALEIGH NC     LGT RAIN  42  40  92 E3        30.11F FOG
ATLANTA GA     LGT RAIN  45  44  97 E9        30.04F
NEW ORLEANS LA LGT RAIN  61  61 100 CALM      29.97F
OKLAHOMA CITY  CLOUDY    39  35  86 NW5       30.02S
ALBUQUERQUE NM CLOUDY    40  14  34 NW5       30.07R
SALT LAKE CITY CLOUDY    41  20  43 E7        29.83F
LOS ANGELES CA CLOUDY    60  54  80 W5        29.99R
BOISE ID       CLOUDY    38  30  73 NW13      29.87R
SEATTLE WA     MOCLDY    38  32  79 SE12      30.11S
$$

*** WEATHER ACROSS MANITOBA...SASKATCHEWAN AND ONTARIO ***
                ***ONTARIO***

CITY           SKY/WX    TMP DP  RH WIND       PRES   REMARKS
GERALDTON      LGT SNOW  27  25  93 E8        29.74F DRFTSNOWWCI  18
THUNDER BAY    LGT SNOW  32  32 100 NE3       29.67F
SIOUX LOOKOUT  SNOWSHWR  28  27  93 SE5       29.62F WCI  23
TORONTO        FLURRIES  36  30  80 E10G17    29.92F
BIG TROUT LK   CLOUDY    27  25  93 S10       29.73F WCI  17
PICKLE LAKE    NOT AVBL
DRYDEN         FLURRIES  28  28 100 SE7       29.58F WCI  21
KENORA         LGT SNOW  30  30 100 S8        29.56S WCI  23
$$
                *** MANITOBA***

CITY           SKY/WX    TMP DP  RH WIND       PRES   REMARKS
BRANDON        CLOUDY    25  23  93 NW8       29.62F WCI  16
DAUPHIN        CLOUDY    27  23  86 W8        29.62S WCI  18
ISLAND LAKE    NOT AVBL
PILOT MOUND      N/A     25  25 100 W10         N/A  WCI  15
THE PAS        CLOUDY    27  21  80 SW3       29.59S
THOMPSON       FLURRIES  25  25 100 E2        29.62S
WINNIPEG       CLOUDY    30  28  93 NW12      29.59R WCI  21
LYNN LAKE      LGT SNOW  23  23 100 E3        29.56S
CHURCHILL      FLURRIES  19  18  93 S7        29.79S WCI  10
GILLAM         FLURRIES  19  18  93 SE3       29.72S
$$
                ***SASKATCHEWAN***

CITY           SKY/WX    TMP DP  RH WIND       PRES   REMARKS
ESTEVAN        CLOUDY    16  14  93 E9        29.56F WCI   4
KINDERSLEY     MOCLDY    16  10  79 NW8       29.61R WCI   5
LLOYDMINSTER   LGT SNOW  18  12  79 NW18      29.63R WCI   2
PRINCE ALBERT  PTCLDY    19  14  79 W6        29.55S WCI  11
REGINA         CLOUDY    19  16  86 E6        29.54F WCI  11
YORKTON        FOG       19  19 100 S6        29.59S VSC1F1C2F2C3F3C4F4C5F5C6F6C7F7C8F8C9F9CaFaCbFbCcFcCdFdCe!


USA.gov is the U.S. government's official web portal to all federal, state and local government web resources and services.